Tracking 35331 objects as of 14-Sep-2026
HD Live streaming from Space Station
objects crossing your sky now

SL-4 R/B


SL-4 R/B is no longer on orbit


NORAD ID: 20495
Int'l Code: 1990-014B
Launch date: February 11, 1990
Source: Commonwealth of Independent States (former USSR) (CIS)
Launch site: TYURATAM MISSILE AND SPACE COMPLEX (TTMTR)
Decay date: 1990-02-13

Note: This is a ROCKET BODY
Your satellite tracking list
Your tracking list is empty




NASA's NSSDC Master Catalog

Two Line Element Set (TLE):
1 20495U 90014  B 90043.90661600  .17105836 +56300-4 +55862-3 0  9996
2 20495 051.5666 235.5885 0004384 139.3381 221.2764 16.44635124000273
Source of the keplerian elements: AFSPC